[[{"header":{"parameterUnit":"m.s-1","parameterCategory":1,"la1":30.2991,"la2":30.254,"lo1":-89.0895,"lo2":-89.0444,"dy":0.0017,"dx":0.0017,"nx":28,"ny":28,"refTime":"2024-05-16T03:00:00:Z","depth":0,"parameterNumber":2,"parameterNumberName":"U-component_of_WINDS"},"data":[0,0,0,0,0,0,0,0,0,0,0,0,0,0,0,0,0,0,0,0,0,0,0,0,0,0,0,0,0,0,0,0,0,0,0,0,0,0,0,0,0,0,0,0,0,0,0,0,0,0,0,0,0,0,0,0,0,0,-1.5658,-1.5658,0,-1.5646,-1.5646,-1.5646,-1.5591,-1.5589,-1.5588,-1.5587,-1.5576,-1.5577,-1.5578,0,0,0,0,0,0,0,0,0,0,0,0,0,-1.5636,-1.5637,-1.5658,-1.5658,-1.5658,-1.5646,-1.5646,-1.5646,-1.5591,-1.5589,-1.5588,-1.5586,-1.5576,-1.5577,-1.5578,0,0,0,0,0,0,0,0,0,0,0,0,0,-1.5637,-1.5637,-1.5658,-1.5629,-1.5626,-1.5646,-1.5646,-1.5646,-1.5591,-1.5589,-1.5587,-1.5585,-1.5576,-1.5577,-1.5578,-1.5626,0,0,-1.5583,-1.5583,0,0,0,0,0,0,0,0,-1.5637,-1.5638,-1.5634,-1.5631,-1.5628,-1.5618,-1.5634,-1.5639,-1.5592,-1.5605,-1.5587,-1.5584,-1.5592,-1.5592,-1.5594,-1.5626,-1.5625,-1.5583,-1.5584,-1.5584,-1.5585,0,0,0,0,0,0,0,-1.5637,-1.5638,-1.5654,-1.5634,-1.563,-1.5617,-1.5615,-1.5635,-1.5609,-1.5603,-1.5599,-1.5598,-1.559,-1.5593,-1.5593,-1.5625,-1.5583,-1.5584,-1.5585,-1.5585,-1.5695,-1.5697,0,0,0,0,0,0,-1.5641,-1.5638,-1.5654,-1.5653,-1.5628,-1.5619,-1.5617,-1.5623,-1.5609,-1.5605,-1.56,-1.5596,-1.5591,-1.5592,-1.5593,-1.5647,-1.5584,-1.5585,-1.5586,-1.5693,-1.5695,-1.5698,0,0,0,0,0,0,-1.5641,-1.5643,-1.5654,-1.5645,-1.5645,-1.5622,-1.5629,-1.5624,-1.5626,-1.5607,-1.5602,-1.5607,-1.559,-1.5591,-1.5618,-1.5646,-1.5586,-1.5587,-1.569,-1.5694,-1.5697,-1.5757,0,0,0,0,0,0,-1.564,-1.5643,-1.566,-1.5645,-1.5646,-1.568,-1.5631,-1.5625,-1.5629,-1.5623,-1.5612,-1.5608,-1.5588,-1.5616,-1.5619,-1.5647,-1.5588,-1.5688,-1.5692,-1.5696,-1.5753,-1.5762,-1.577,0,0,0,0,0,-1.5639,-1.5679,-1.5662,-1.5664,-1.5667,-1.5681,-1.5682,-1.5657,-1.5631,-1.5649,-1.5636,-1.5609,-1.5643,-1.5619,-1.5622,-1.5651,-1.5686,-1.5691,-1.5695,-1.5749,-1.576,-1.577,0,0,0,0,0,0,-1.5698,-1.5676,-1.5657,-1.5692,-1.5689,-1.5672,-1.5694,-1.567,-1.5675,-1.5669,-1.5639,-1.5637,-1.5669,-1.5663,-1.5637,-1.5696,-1.566,-1.5665,-1.5699,-1.571,-1.5718,-1.5719,-1.559,0,0,0,0,0,-1.5715,-1.5728,-1.5708,-1.5741,-1.5741,-1.5718,-1.5723,-1.5704,-1.57,-1.5698,-1.5687,-1.5685,-1.5695,-1.5702,-1.571,-1.5751,-1.5748,-1.5773,-1.5781,-1.5789,-1.5794,-1.5815,-1.5826,-1.5713,-1.5713,-1.5713,0,0,-1.5751,-1.574,-1.575,-1.5753,-1.5748,-1.5762,-1.5717,-1.5734,-1.5745,-1.5701,-1.5726,-1.5718,-1.5713,-1.5748,-1.5762,-1.5743,-1.5824,-1.5795,-1.5801,-1.5802,-1.5821,-1.5832,-1.5841,-1.5716,-1.5716,-1.5715,0,0,-1.5823,-1.5816,-1.5842,-1.5838,-1.5831,-1.5816,-1.5822,-1.5809,-1.5802,-1.5826,-1.5793,-1.5806,-1.5824,-1.5821,-1.5823,-1.5893,-1.5868,-1.5897,-1.5943,-1.5964,-1.5973,-1.598,-1.6005,-1.6015,-1.5902,-1.5902,-1.5902,0,-1.5868,-1.5887,-1.5859,-1.5878,-1.5881,-1.5841,-1.5868,-1.5866,-1.5862,-1.5865,-1.5844,-1.5865,-1.5859,-1.5892,-1.5909,-1.5912,-1.5918,-1.5898,-1.5973,-1.5981,-1.5988,-1.6011,-1.6021,-1.5906,-1.5905,-1.5905,-1.5905,0,-1.5943,-1.5957,-1.598,-1.5976,-1.5981,-1.6004,-1.598,-1.5988,-1.5969,-1.5956,-1.5981,-1.5973,-1.5978,-1.5985,-1.5966,-1.6015,-1.6004,-1.5979,-1.5941,-1.6002,-1.6024,-1.6033,-1.5911,-1.5909,-1.5908,-1.5908,0,0,-1.6052,-1.6032,-1.6041,-1.6039,-1.6028,-1.6039,-1.606,-1.6065,-1.6072,-1.6071,-1.6089,-1.6105,-1.6081,-1.6082,-1.6063,-1.6082,-1.6138,-1.6054,-1.6054,-1.607,-1.6192,-1.6211,-1.6222,-1.6122,-1.6123,-1.6125,-1.6192,0,-1.6121,-1.6155,-1.613,-1.6169,-1.6182,-1.6144,-1.6163,-1.6159,-1.6147,-1.6157,-1.6144,-1.6155,-1.6123,-1.6124,-1.6141,-1.6128,-1.6162,-1.6123,-1.6138,-1.6139,-1.614,-1.6233,-1.6253,-1.6317,-1.62,-1.6202,-1.6203,0,-1.6205,-1.6207,-1.6247,-1.6233,-1.6237,-1.6254,-1.6256,-1.6266,-1.626,-1.625,-1.6252,-1.6228,-1.6249,-1.6212,-1.624,-1.6213,-1.6218,-1.6213,-1.6215,-1.6215,-1.6174,-1.6236,-1.6337,-1.6347,-1.6216,-1.6215,-1.6214,0,-1.628,-1.6293,-1.6318,-1.6317,-1.6302,-1.6315,-1.6309,-1.6301,-1.6306,-1.6308,-1.631,-1.6315,-1.6318,-1.6322,-1.6301,-1.6276,-1.6331,-1.6293,-1.6324,-1.6325,-1.6337,-1.6337,-1.6441,-1.6341,-1.6341,-1.6341,-1.634,0,-1.6359,-1.6385,-1.6351,-1.6367,-1.6395,-1.6366,-1.6395,-1.6386,-1.6379,-1.6393,-1.6361,-1.6375,-1.6345,-1.6356,-1.6339,-1.6365,-1.6366,-1.6359,-1.6354,-1.6362,-1.6363,-1.6365,-1.6359,-1.6343,-1.6343,-1.6342,-1.6342,0,-1.6448,-1.6426,-1.6451,-1.6434,-1.6431,-1.6452,-1.6438,-1.6452,-1.6438,-1.6455,-1.6458,-1.6436,-1.6447,-1.6426,-1.6434,-1.6423,-1.6459,-1.6447,-1.646,-1.6457,-1.6489,-1.6486,-1.6597,-1.661,-1.6503,-1.6504,-1.6505,0,-1.65,-1.6519,-1.6503,-1.6509,-1.6505,-1.6516,-1.652,-1.6493,-1.6498,-1.6493,-1.6508,-1.6516,-1.6521,-1.654,-1.6525,-1.6531,-1.652,-1.6558,-1.652,-1.6527,-1.652,-1.6519,-1.6521,-1.6566,-1.6567,-1.6568,-1.6569,0,-1.6594,-1.6582,-1.6588,-1.6591,-1.6596,-1.6597,-1.6596,-1.6603,-1.6574,-1.6582,-1.6592,-1.6595,-1.6603,-1.6612,-1.6615,-1.6609,-1.6585,-1.6581,-1.6589,-1.6596,-1.6603,-1.66,-1.6481,-1.6579,-1.6578,-1.6577,-1.6577,-1.6576,-1.6665,-1.668,-1.6671,-1.6679,-1.6675,-1.6675,-1.6687,-1.6674,-1.6682,-1.6685,-1.6669,-1.6683,-1.6677,-1.6678,-1.6675,-1.6686,-1.6669,-1.668,-1.6682,-1.6685,-1.669,-1.6602,-1.6686,-1.6686,-1.6686,-1.6685,-1.6685,0,-1.6757,-1.675,-1.6757,-1.6756,-1.6762,-1.6738,-1.6735,-1.6742,-1.6754,-1.675,-1.6755,-1.6767,-1.6775,-1.6761,-1.6767,-1.6778,-1.6767,-1.678,-1.6779,-1.6778,-1.6706,-1.6698,-1.6789,-1.6789,-1.6789,-1.6789,-1.6789,-1.6789,-1.6806,-1.683,-1.6817,-1.6838,-1.683,-1.6843,-1.6843,-1.6843,-1.6839,-1.6854,-1.686,-1.685,-1.6842,-1.6847,-1.6853,-1.6849,-1.6852,-1.687,-1.6861,-1.6794,-1.6784,-1.6774,-1.6767,-1.6871,-1.6871,-1.6933,-1.6934,-1.6934]},{"header":{"parameterUnit":"m.s-1","parameterCategory":1,"la1":30.2991,"la2":30.254,"lo1":-89.0895,"lo2":-89.0444,"dy":0.0017,"dx":0.0017,"nx":28,"ny":28,"refTime":"2024-05-16T03:00:00:Z","depth":0,"parameterNumber":3,"parameterNumberName":"V-component_of_WINDS"},"data":[0,0,0,0,0,0,0,0,0,0,0,0,0,0,0,0,0,0,0,0,0,0,0,0,0,0,0,0,0,0,0,0,0,0,0,0,0,0,0,0,0,0,0,0,0,0,0,0,0,0,0,0,0,0,0,0,0,0,-0.7536,-0.7536,0,-0.7539,-0.7539,-0.7539,-0.7542,-0.7542,-0.7542,-0.7542,-0.7544,-0.7544,-0.7544,0,0,0,0,0,0,0,0,0,0,0,0,0,-0.753,-0.753,-0.7536,-0.7536,-0.7536,-0.7539,-0.7539,-0.7539,-0.7542,-0.7542,-0.7542,-0.7542,-0.7544,-0.7544,-0.7544,0,0,0,0,0,0,0,0,0,0,0,0,0,-0.7533,-0.753,-0.7536,-0.7538,-0.7538,-0.7539,-0.7539,-0.7539,-0.7542,-0.7542,-0.7542,-0.7542,-0.7544,-0.7544,-0.7544,-0.7543,0,0,-0.7544,-0.7544,0,0,0,0,0,0,0,0,-0.7532,-0.7533,-0.7538,-0.7538,-0.7538,-0.754,-0.7538,-0.754,-0.7542,-0.754,-0.7542,-0.7542,-0.7542,-0.7542,-0.7543,-0.7543,-0.7543,-0.7544,-0.7544,-0.7544,-0.7544,0,0,0,0,0,0,0,-0.7532,-0.7533,-0.7537,-0.7538,-0.7538,-0.7538,-0.7538,-0.7538,-0.7541,-0.754,-0.7541,-0.7541,-0.7542,-0.7543,-0.7543,-0.7543,-0.7544,-0.7544,-0.7544,-0.7544,-0.7541,-0.7541,0,0,0,0,0,0,-0.7532,-0.7533,-0.7537,-0.7537,-0.7535,-0.7538,-0.7538,-0.7539,-0.7541,-0.7541,-0.7541,-0.7541,-0.7543,-0.7543,-0.7543,-0.7541,-0.7544,-0.7544,-0.7544,-0.7541,-0.7541,-0.7541,0,0,0,0,0,0,-0.7532,-0.7533,-0.7537,-0.7535,-0.7536,-0.7538,-0.7539,-0.7539,-0.754,-0.7541,-0.7542,-0.7541,-0.7543,-0.7543,-0.7543,-0.7541,-0.7544,-0.7544,-0.7541,-0.7541,-0.7541,-0.7538,0,0,0,0,0,0,-0.7532,-0.7532,-0.7533,-0.7535,-0.7536,-0.7537,-0.7539,-0.7539,-0.754,-0.754,-0.7542,-0.7542,-0.7543,-0.7543,-0.7543,-0.7541,-0.7544,-0.7541,-0.7541,-0.7541,-0.7539,-0.7538,-0.7538,0,0,0,0,0,-0.7532,-0.7532,-0.7533,-0.7533,-0.7536,-0.7537,-0.7538,-0.7539,-0.754,-0.754,-0.7541,-0.7542,-0.7542,-0.7543,-0.7543,-0.7541,-0.7541,-0.7541,-0.7541,-0.7539,-0.7538,-0.7538,0,0,0,0,0,0,-0.753,-0.7533,-0.7533,-0.7535,-0.7536,-0.7538,-0.7538,-0.7539,-0.7539,-0.754,-0.7541,-0.7541,-0.754,-0.7541,-0.7542,-0.754,-0.7541,-0.7541,-0.754,-0.7539,-0.7539,-0.7539,-0.7544,0,0,0,0,0,-0.753,-0.7531,-0.7533,-0.7534,-0.7534,-0.7536,-0.7536,-0.7537,-0.7538,-0.7539,-0.754,-0.754,-0.754,-0.7539,-0.754,-0.7539,-0.7538,-0.7538,-0.7537,-0.7537,-0.7537,-0.7535,-0.7534,-0.754,-0.754,-0.754,0,0,-0.7529,-0.7531,-0.7532,-0.7533,-0.7534,-0.7535,-0.7536,-0.7537,-0.7537,-0.7539,-0.7538,-0.7539,-0.7539,-0.7538,-0.7537,-0.7538,-0.7535,-0.7537,-0.7536,-0.7536,-0.7534,-0.7534,-0.7533,-0.754,-0.754,-0.754,0,0,-0.7528,-0.753,-0.7531,-0.7531,-0.7533,-0.7533,-0.7533,-0.7535,-0.7535,-0.7535,-0.7536,-0.7535,-0.7535,-0.7535,-0.7535,-0.7532,-0.7533,-0.7532,-0.753,-0.7528,-0.7528,-0.7527,-0.7525,-0.7524,-0.7532,-0.7532,-0.7532,0,-0.7528,-0.7529,-0.7531,-0.7531,-0.7531,-0.7533,-0.7532,-0.7533,-0.7534,-0.7533,-0.7534,-0.7533,-0.7534,-0.7532,-0.7531,-0.7531,-0.753,-0.7532,-0.7528,-0.7527,-0.7527,-0.7525,-0.7524,-0.7532,-0.7532,-0.7532,-0.7532,0,-0.7527,-0.7528,-0.7528,-0.7529,-0.7529,-0.7529,-0.753,-0.753,-0.753,-0.753,-0.7529,-0.7529,-0.7529,-0.7528,-0.7529,-0.7526,-0.7526,-0.7527,-0.7529,-0.7526,-0.7524,-0.7523,-0.7532,-0.7532,-0.7532,-0.7532,0,0,-0.7527,-0.7527,-0.7527,-0.7527,-0.7528,-0.7528,-0.7527,-0.7527,-0.7526,-0.7526,-0.7525,-0.7524,-0.7524,-0.7524,-0.7525,-0.7523,-0.7519,-0.7524,-0.7524,-0.7522,-0.7514,-0.7513,-0.7512,-0.7519,-0.7519,-0.7519,-0.7514,0,-0.7525,-0.7525,-0.7526,-0.7525,-0.7524,-0.7525,-0.7524,-0.7524,-0.7524,-0.7523,-0.7522,-0.7521,-0.7523,-0.7522,-0.7521,-0.752,-0.7517,-0.752,-0.7517,-0.7517,-0.7517,-0.7512,-0.7511,-0.7506,-0.7513,-0.7513,-0.7513,0,-0.7525,-0.7524,-0.7523,-0.7523,-0.7522,-0.7522,-0.7521,-0.752,-0.7519,-0.7519,-0.7518,-0.7518,-0.7516,-0.7518,-0.7514,-0.7516,-0.7514,-0.7514,-0.7513,-0.7513,-0.7515,-0.751,-0.7504,-0.7503,-0.7512,-0.7512,-0.7512,0,-0.7523,-0.7522,-0.7521,-0.7521,-0.7521,-0.752,-0.7519,-0.7519,-0.7518,-0.7516,-0.7516,-0.7514,-0.7513,-0.7511,-0.751,-0.7512,-0.7506,-0.7508,-0.7505,-0.7505,-0.7504,-0.7504,-0.7497,-0.7504,-0.7504,-0.7504,-0.7504,0,-0.7522,-0.7521,-0.752,-0.752,-0.7518,-0.7518,-0.7516,-0.7516,-0.7515,-0.7513,-0.7513,-0.7512,-0.7511,-0.7509,-0.7508,-0.7504,-0.7504,-0.7503,-0.7503,-0.7503,-0.7503,-0.7502,-0.7502,-0.7503,-0.7504,-0.7504,-0.7504,0,-0.752,-0.752,-0.7518,-0.7518,-0.7517,-0.7516,-0.7515,-0.7513,-0.7513,-0.7511,-0.751,-0.7509,-0.7506,-0.7505,-0.7502,-0.7501,-0.7496,-0.7497,-0.7497,-0.7497,-0.7493,-0.7493,-0.7485,-0.7483,-0.7492,-0.7492,-0.7492,0,-0.7519,-0.7518,-0.7517,-0.7516,-0.7515,-0.7514,-0.7513,-0.7512,-0.7511,-0.7509,-0.7507,-0.7504,-0.7502,-0.7497,-0.7495,-0.7492,-0.7492,-0.7489,-0.7492,-0.7491,-0.7491,-0.7491,-0.749,-0.7489,-0.7489,-0.7489,-0.7489,0,-0.7517,-0.7516,-0.7515,-0.7513,-0.7512,-0.751,-0.7509,-0.7508,-0.7507,-0.7505,-0.7502,-0.75,-0.7496,-0.7493,-0.7489,-0.7488,-0.7488,-0.7488,-0.7487,-0.7487,-0.7486,-0.7485,-0.7495,-0.7488,-0.7488,-0.7488,-0.7488,-0.7488,-0.7515,-0.7513,-0.7512,-0.751,-0.7509,-0.7507,-0.7505,-0.7504,-0.7502,-0.7499,-0.7498,-0.7495,-0.7492,-0.7487,-0.7485,-0.7481,-0.7482,-0.7481,-0.7481,-0.748,-0.7479,-0.7487,-0.7481,-0.7481,-0.7481,-0.7481,-0.7481,0,-0.7512,-0.751,-0.7509,-0.7506,-0.7504,-0.7504,-0.7502,-0.75,-0.7497,-0.7495,-0.7492,-0.7488,-0.7484,-0.7482,-0.7478,-0.7475,-0.7475,-0.7474,-0.7474,-0.7473,-0.748,-0.748,-0.7474,-0.7474,-0.7474,-0.7474,-0.7474,-0.7474,-0.751,-0.7507,-0.7506,-0.7502,-0.7501,-0.7498,-0.7496,-0.7494,-0.7492,-0.7487,-0.7484,-0.7483,-0.748,-0.7475,-0.7471,-0.747,-0.7468,-0.7467,-0.7466,-0.7472,-0.7473,-0.7474,-0.7474,-0.7467,-0.7467,-0.746,-0.746,-0.746]}]]